CAPE
838 1072 1233 1364 1301 1277 1319 1409 1467 1617 1844 1881 1771 1672 1614 1657 1643 1658 1540 1159 1090 1172 1014 954 859 618 774 955 1187 1241 1170 1220 1195 1299 1242 948 878 805 816 823 766 615 630
1049 1096 1126 1350 1347 1301 1310 1464 1555 1671 1846 1814 1754 1711 1699 1658 1714 1713 1598 1325 993 815 727 720 788 902 920 900 987 1047 1058 1087 937 789 842 1131 816 595 527 523 460 504 1047
1228 1106 999 1278 1447 1466 1470 1581 1671 1743 1641 1582 1655 1706 1657 1543 1454 1574 1540 1317 1058 853 853 853 756 480 505 638 750 782 701 541 369 364 217 122 510 831 465 365 374 321 428
1221 1217 1106 1277 1437 1537 1525 1572 1643 1623 1517 1597 1604 1532 1501 1323 1268 1314 1437 1297 1210 731 961 1004 958 834 759 707 704 627 505 338 235 143 262 343 296 253 403 358 329 209 144
1220 1270 1253 1064 1211 1407 1529 1621 1598 1579 1541 1566 1584 1347 1328 1300 1284 1245 1332 1318 1204 668 548 658 654 535 447 367 269 188 107 31 3 0 0 25 115 77 334 98 110 143 128
1058 1129 850 982 1110 1326 1358 1404 1332 1254 1200 1337 1466 1511 1208 1170 1162 1126 1250 1363 954 792 676 543 471 357 249 150 88 8 0 0 0 0 0 0 11 18 366 751 481 168 202
948 971 1132 772 1096 1287 1351 1193 1166 1092 1083 1122 1108 1037 993 776 712 786 950 1096 977 655 448 331 279 231 146 80 57 7 0 0 0 0 0 0 0 44 580 767 922 672 517
555 857 1060 1008 953 1022 993 871 834 872 892 878 846 811 624 477 437 512 517 651 743 622 493 325 163 126 106 78 42 5 0 0 0 0 0 0 0 51 411 868 1141 795 694
11 51 407 1016 995 571 541 550 561 517 456 434 358 351 332 298 340 434 349 355 402 348 305 230 123 82 89 67 42 1 0 0 0 0 0 0 5 136 517 1101 1256 1165 1019
0 4 47 480 786 970 1007 327 72 1 0 2 0 82 42 220 234 167 294 341 310 326 338 280 156 63 7 0 0 0 0 0 0 0 0 0 0 131 518 1122 1383 1445 1329
0 0 38 166 262 622 645 140 0 0 0 2 1 0 111 233 312 632 47 168 197 215 223 215 152 44 1 0 0 0 0 22 13 1 0 0 0 183 428 949 1164 1141 1175
0 0 34 363 487 301 0 1 0 0 1 2 2 2 61 104 2 0 0 0 0 3 0 5 0 19 269 682 672 144 496 393 233 85 4 0 136 433 513 790 913 910 918
0 0 1 15 6 1 0 0 0 0 0 3 5 3 2 0 0 0 0 0 4 0 25 28 107 234 388 526 706 685 505 352 221 72 7 0 171 364 316 204 487 223 89
0 0 2 1 1 0 0 0 0 0 0 0 1 1 0 0 0 0 0 0 0 0 0 0 0 0 0 0 0 1 296 126 4 6 1 6 6 7 35 252 68 18 5
0 0 3 2 1 0 0 0 0 0 0 0 0 0 0 0 0 0 0 0 0 0 0 0 0 0 0 0 0 3 17 0 2 13 0 0 3 16 24 27 20 18 19
0 0 3 1 1 0 0 0 0 0 0 0 0 0 0 0 0 0 0 0 0 0 0 0 0 0 0 0 4 0 0 0 2 0 0 0 0 0 10 6 7 12 12
0 1 1 0 0 0 0 0 0 0 0 0 0 0 0 0 0 0 0 0 0 0 0 0 0 0 0 0 8 0 0 0 0 0 0 0 0 0 3 2 0 0 7
0 0 0 0 0 0 0 0 0 0 0 0 0 0 0 0 0 0 0 0 0 0 0 0 0 0 0 8 2 0 0 0 0 0 0 0 0 0 0 3 0 0 0
0 1 0 0 0 0 0 0 0 0 0 0 0 0 0 0 0 0 0 0 0 0 0 0 0 0 1 1 0 0 0 0 0 0 0 0 0 0 0 0 0 0 0
0 0 0 0 0 0 0 0 0 0 0 0 0 0 0 0 0 0 0 0 0 0 0 0 0 0 0 0 0 0 0 0 0 0 0 0 0 0 0 0 0 0 0
0 1 0 0 0 0 0 0 0 0 0 0 0 0 0 0 0 0 0 0 0 0 0 0 0 0 0 0 2 1 0 0 0 0 0 0 0 0 0 0 0 0 0
0 0 0 0 0 0 0 0 0 0 0 0 0 0 0 0 0 0 0 0 0 0 0 0 0 0 0 0 0 0 0 0 0 0 0 0 0 0 0 0 0 0 0
0 0 0 0 0 0 0 0 0 0 0 0 0 0 0 0 0 0 0 0 0 0 0 0 0 0 0 0 0 0 0 0 0 0 0 0 0 0 0 0 0 0 0
0 0 0 0 0 0 0 0 0 0 0 0 0 0 0 0 0 0 0 0 0 0 0 0 0 0 0 0 0 0 0 0 0 0 0 0 0 0 0 0 0 0 0
0 0 0 0 0 0 0 0 0 0 0 0 0 0 0 0 0 0 0 0 0 0 0 0 0 0 0 0 0 0 0 0 0 0 0 0 0 0 0 0 0 0 0
0 0 0 0 0 0 0 0 0 0 0 0 0 0 0 0 0 0 0 0 0 0 0 0 0 0 0 0 0 0 0 0 0 0 0 0 0 0 0 0 0 0 0
CIN
-0 -0 -2 -0 -0 -0 -3 -13 -14 -4 -0 -0 -0 -0 -0 -0 -0 -0 -0 -9 -22 -26 -49 -59 -54 -66 -39 -17 -1 -0 -1 -2 -1 -1 -1 -0 -0 -0 -0 -0 -2 -0 -3
-0 -0 -3 -0 -0 -0 -0 -5 -9 -0 -0 -0 -0 -0 -0 -0 -0 -0 -0 -2 -16 -41 -69 -81 -83 -65 -46 -38 -23 -15 -14 -7 -24 -37 -25 -0 -2 -9 -12 -15 -24 -6 -0
-3 -0 -0 -1 -0 -0 -0 -0 -0 -0 -0 -0 -0 -0 -0 -0 -0 -0 -0 -0 -8 -21 -20 -22 -37 -77 -79 -64 -46 -36 -36 -51 -70 -72 -99 -89 -18 -12 -44 -53 -38 -39 -19
-2 -0 -0 -0 -0 -0 -0 -0 -0 -0 -0 -0 -0 -0 -0 -0 -0 -0 -0 -0 -0 -24 -10 -9 -15 -19 -15 -12 -15 -27 -42 -64 -110 -182 -58 -34 -39 -75 -47 -50 -53 -69 -65
-0 -0 -0 -3 -2 -0 -0 -0 -0 -0 -0 -0 -0 -0 -0 -0 -0 -0 -0 -0 -0 -14 -29 -28 -36 -55 -75 -87 -95 -105 -165 -292 -108 -0 -0 -226 -116 -133 -58 -98 -94 -105 -105
-0 -0 -7 -8 -3 -1 -1 -0 -1 -1 -1 -1 -0 -0 -0 -0 -0 -0 -0 -0 -0 -0 -0 -0 -11 -35 -73 -128 -192 -248 -0 -0 -0 -0 -0 -0 -229 -264 -90 -30 -54 -87 -82
-0 -0 -0 -23 -3 -1 -0 -1 -1 -1 -1 -1 -0 -1 -0 -3 -7 -2 -0 -0 -0 -8 -17 -28 -44 -65 -122 -189 -221 -281 -0 -0 -0 -0 -0 -0 -0 -223 -70 -59 -34 -44 -48
-10 -0 -0 -2 -3 -1 -2 -2 -2 -1 -1 -0 -0 -2 -13 -29 -30 -26 -27 -11 -1 -6 -18 -32 -73 -107 -133 -164 -211 -278 -102 -0 -0 -0 -0 -0 -0 -216 -70 -54 -38 -59 -54
-123 -135 -18 -0 -0 -3 -3 -5 -1 -1 -14 -31 -51 -50 -45 -51 -50 -37 -47 -44 -34 -37 -40 -52 -90 -134 -135 -173 -219 -50 -0 -0 -0 -0 -0 -0 -52 -150 -57 -20 -12 -22 -32
-0 -302 -106 -0 -0 -0 -0 -5 -86 -0 -0 -0 -0 -119 -168 -78 -72 -82 -59 -53 -59 -56 -51 -56 -86 -150 -139 -0 -0 -0 -0 -0 -0 -0 -0 -0 -22 -109 -42 -17 -5 -2 -7
-0 -0 -138 -27 -10 -0 -0 -57 -0 -0 -0 -0 -0 -0 -142 -76 -59 -25 -101 -102 -96 -92 -92 -93 -118 -182 -102 -23 -0 -0 -0 -143 -136 -29 -0 -0 -0 -96 -55 -27 -17 -20 -20
-0 -0 -140 -10 -5 -13 -0 -0 -0 -0 -0 -0 -0 -0 -168 -145 -28 -0 -0 -0 -0 -103 -0 -106 -0 -133 -99 -27 -21 -34 -21 -37 -31 -75 -65 -0 -100 -44 -43 -32 -28 -25 -40
-0 -0 -0 -220 -18 -4 -0 -0 -0 -0 -0 -0 -0 -0 -0 -0 -0 -0 -0 -0 -33 -0 -240 -214 -116 -84 -57 -34 -19 -17 -21 -32 -30 -51 -0 -0 -53 -30 -41 -60 -20 -57 -111
-0 -0 -0 -0 -0 -0 -0 -0 -0 -0 -0 -0 -0 -0 -0 -0 -0 -0 -0 -0 -0 -0 -0 -0 -0 -0 -0 -0 -0 -83 -22 -62 -86 -59 -0 -0 -0 -0 -58 -21 -47 -81 -0
-0 -0 -0 -0 -0 -0 -0 -0 -0 -0 -0 -0 -0 -0 -0 -0 -0 -0 -0 -0 -0 -0 -0 -0 -0 -0 -0 -0 -0 -86 -30 -0 -0 -0 -0 -0 -0 -0 -52 -0 -0 -0 -0
-0 -0 -0 -0 -0 -0 -0 -0 -0 -0 -0 -0 -0 -0 -0 -0 -0 -0 -0 -0 -0 -0 -0 -0 -0 -0 -0 -0 -0 -0 -0 -0 -0 -0 -0 -0 -0 -0 -0 -0 -0 -0 -0
-0 -0 -0 -0 -0 -0 -0 -0 -0 -0 -0 -0 -0 -0 -0 -0 -0 -0 -0 -0 -0 -0 -0 -0 -0 -0 -0 -0 -0 -0 -0 -0 -0 -0 -0 -0 -0 -0 -0 -0 -0 -0 -0
-0 -0 -0 -0 -0 -0 -0 -0 -0 -0 -0 -0 -0 -0 -0 -0 -0 -0 -0 -0 -0 -0 -0 -0 -0 -0 -0 -0 -0 -0 -0 -0 -0 -0 -0 -0 -0 -0 -0 -0 -0 -0 -0
-0 -0 -0 -0 -0 -0 -0 -0 -0 -0 -0 -0 -0 -0 -0 -0 -0 -0 -0 -0 -0 -0 -0 -0 -0 -0 -0 -0 -0 -0 -0 -0 -0 -0 -0 -0 -0 -0 -0 -0 -0 -0 -0
-0 -0 -0 -0 -0 -0 -0 -0 -0 -0 -0 -0 -0 -0 -0 -0 -0 -0 -0 -0 -0 -0 -0 -0 -0 -0 -0 -0 -0 -0 -0 -0 -0 -0 -0 -0 -0 -0 -0 -0 -0 -0 -0
-0 -0 -0 -0 -0 -0 -0 -0 -0 -0 -0 -0 -0 -0 -0 -0 -0 -0 -0 -0 -0 -0 -0 -0 -0 -0 -0 -0 -0 -0 -0 -0 -0 -0 -0 -0 -0 -0 -0 -0 -0 -0 -0
-0 -0 -0 -0 -0 -0 -0 -0 -0 -0 -0 -0 -0 -0 -0 -0 -0 -0 -0 -0 -0 -0 -0 -0 -0 -0 -0 -0 -0 -0 -0 -0 -0 -0 -0 -0 -0 -0 -0 -0 -0 -0 -0
-0 -0 -0 -0 -0 -0 -0 -0 -0 -0 -0 -0 -0 -0 -0 -0 -0 -0 -0 -0 -0 -0 -0 -0 -0 -0 -0 -0 -0 -0 -0 -0 -0 -0 -0 -0 -0 -0 -0 -0 -0 -0 -0
-0 -0 -0 -0 -0 -0 -0 -0 -0 -0 -0 -0 -0 -0 -0 -0 -0 -0 -0 -0 -0 -0 -0 -0 -0 -0 -0 -0 -0 -0 -0 -0 -0 -0 -0 -0 -0 -0 -0 -0 -0 -0 -0
-0 -0 -0 -0 -0 -0 -0 -0 -0 -0 -0 -0 -0 -0 -0 -0 -0 -0 -0 -0 -0 -0 -0 -0 -0 -0 -0 -0 -0 -0 -0 -0 -0 -0 -0 -0 -0 -0 -0 -0 -0 -0 -0
-0 -0 -0 -0 -0 -0 -0 -0 -0 -0 -0 -0 -0 -0 -0 -0 -0 -0 -0 -0 -0 -0 -0 -0 -0 -0 -0 -0 -0 -0 -0 -0 -0 -0 -0 -0 -0 -0 -0 -0 -0 -0 -0
Wind_Speed
8 11 10 6 5 4 6 9 12 11 11 12 12 11 11 11 10 10 9 9 11 14 16 16 15 14 14 13 12 11 10 11 10 10 7 9 8 7 6 6 1 7 7
11 11 9 7 6 6 8 9 11 11 11 11 11 10 10 8 8 9 8 8 9 12 14 15 15 14 13 12 11 10 10 9 8 8 7 6 6 5 3 3 2 5 4
9 10 10 8 7 6 9 10 11 10 11 11 10 10 9 9 9 9 8 8 8 10 11 11 11 11 11 10 9 8 7 6 7 7 5 4 2 3 2 1 0 1 2
8 8 7 7 6 5 8 9 11 11 10 10 9 10 10 9 9 9 8 8 8 9 9 10 11 10 9 8 7 6 5 4 6 4 3 4 4 1 3 3 3 3 3
10 7 7 5 6 6 7 8 9 10 9 9 8 9 9 9 9 8 8 8 7 8 8 9 9 8 7 6 5 5 4 4 5 4 5 5 6 3 6 5 6 6 5
8 6 6 7 7 6 7 9 10 10 9 8 8 7 8 8 8 8 8 8 9 9 8 7 7 6 5 4 4 4 4 5 4 4 5 5 6 5 8 7 6 6 6
8 6 6 6 7 7 7 8 9 9 9 8 8 7 7 7 7 8 8 7 8 8 7 7 6 6 6 6 6 7 7 8 8 6 6 6 6 7 6 9 8 8 7
8 7 7 8 7 7 7 8 8 9 9 9 8 7 7 7 7 7 7 7 7 6 6 5 4 3 3 3 3 4 4 6 6 6 7 6 5 9 9 9 10 10 9
7 7 6 6 7 8 8 7 9 10 9 9 8 8 8 8 7 5 5 5 5 5 5 5 5 4 4 4 4 4 5 6 8 5 7 5 10 13 12 8 9 10 10
8 8 6 5 5 7 7 10 14 13 11 12 11 10 9 7 8 7 5 5 5 5 5 6 6 6 5 5 5 5 5 6 5 6 5 5 12 13 13 10 8 10 11
9 7 6 5 6 7 8 9 10 11 12 11 9 11 7 6 8 9 12 11 9 8 7 6 5 5 5 3 4 5 6 3 4 4 4 9 12 13 13 12 11 10 10
9 7 5 6 7 7 6 7 6 7 7 7 7 7 5 6 7 6 8 11 10 8 8 7 8 5 3 4 4 2 4 6 4 5 7 9 9 12 14 13 13 15 13
6 7 5 7 7 7 6 5 3 3 4 5 8 7 6 4 5 5 4 4 6 8 5 5 5 4 6 5 5 5 6 5 4 7 13 18 17 17 17 16 16 18 18
9 8 6 7 8 8 6 5 6 5 5 5 7 8 5 4 5 6 5 6 5 5 6 5 4 5 7 7 8 8 8 7 6 6 13 21 20 20 18 17 21 19 19
10 8 7 8 7 8 9 6 7 6 6 6 6 8 5 5 5 5 5 5 5 5 5 4 5 5 6 6 7 7 11 10 11 6 6 21 23 22 24 22 22 21 21
8 9 9 10 9 10 9 9 6 6 6 6 6 7 8 5 5 5 5 6 6 6 5 5 6 5 5 5 8 13 12 11 12 11 8 8 19 24 24 23 23 22 21
6 9 10 10 11 10 10 8 7 7 7 7 7 9 10 8 8 7 6 6 6 5 6 6 6 5 5 6 12 11 11 12 12 13 9 8 8 17 22 22 22 23 22
5 8 9 9 12 10 11 9 8 7 8 7 7 8 10 10 9 8 7 6 6 5 6 7 6 5 6 8 8 9 9 9 12 12 11 10 9 8 12 19 20 22 21
5 8 10 10 11 12 11 9 10 9 8 7 7 8 10 10 10 8 7 7 6 6 7 7 7 5 6 8 8 7 8 9 10 10 12 12 11 10 8 13 15 19 21
6 3 10 8 12 10 8 8 8 8 7 7 8 8 9 8 9 8 8 9 7 7 7 8 9 7 6 5 7 7 7 7 8 8 11 9 10 10 10 11 9 8 18
8 12 12 12 9 7 6 6 6 7 7 8 8 10 10 10 10 9 8 9 8 9 9 8 8 11 8 4 0 4 5 6 6 6 7 9 10 8 11 9 9 7 8
11 10 10 12 10 6 5 6 4 6 7 7 7 10 10 11 10 10 10 9 10 9 11 11 9 5 8 9 3 0 1 4 3 5 6 8 10 8 8 9 11 10 9
12 13 11 12 10 8 10 9 8 9 5 6 6 7 9 11 11 12 11 10 10 9 9 10 11 9 7 9 13 4 1 4 5 1 4 6 10 7 9 8 10 9 9
10 11 12 11 8 9 11 10 10 7 7 4 6 7 8 10 11 12 11 11 9 8 9 9 9 9 8 7 5 8 10 6 4 4 2 5 9 8 10 8 9 8 10
11 11 11 11 12 10 8 9 9 10 9 6 6 8 9 9 11 11 11 10 9 7 9 10 10 10 8 8 8 4 4 3 6 3 5 9 6 8 9 7 8 7 10
10 10 11 12 10 9 8 9 11 13 11 8 7 6 6 6 6 9 10 9 9 8 9 8 8 9 8 8 7 7 6 5 6 5 5 11 11 9 10 9 8 7 9
Wind_Direction
157 136 134 136 140 124 109 102 93 85 83 85 87 86 85 87 90 90 91 96 104 107 105 102 97 94 91 92 92 91 90 76 65 58 75 90 90 90 87 78 77 116 130
133 135 134 141 138 136 122 108 98 95 93 92 87 82 80 89 90 93 91 93 95 104 108 110 112 112 110 108 104 99 99 100 96 89 77 103 110 90 83 90 80 87 100
116 131 145 147 136 140 126 115 103 97 96 93 87 82 81 80 80 77 79 86 92 99 100 96 97 102 105 106 103 106 102 96 76 69 60 66 65 127 133 138 235 177 184
116 128 144 145 128 132 117 116 111 106 96 87 81 81 79 77 73 72 66 76 85 98 102 99 97 90 79 67 64 69 71 72 39 23 10 353 332 208 230 216 230 229 234
111 122 136 140 125 118 109 108 106 107 102 93 89 88 84 81 76 68 57 54 73 88 95 97 97 97 99 99 89 69 50 30 17 299 356 351 324 295 261 245 229 227 234
96 114 119 116 112 104 104 105 102 97 93 92 87 84 84 81 78 73 65 57 57 54 53 60 68 69 64 56 49 42 29 14 297 355 349 355 341 345 277 255 239 251 244
94 96 97 100 111 104 101 94 93 94 88 78 71 63 63 65 63 59 53 57 61 62 62 60 54 47 34 20 14 10 5 356 338 342 330 336 342 324 300 256 228 241 249
83 77 84 85 83 96 95 88 86 83 80 71 62 56 57 58 53 59 66 61 56 52 50 49 45 35 22 12 358 347 340 339 309 324 326 323 347 320 313 272 225 227 234
62 65 67 84 95 82 64 75 74 67 64 59 47 40 33 33 36 40 50 55 56 51 42 35 28 15 2 351 338 331 325 324 312 321 318 327 358 332 328 319 264 242 240
74 70 61 77 91 94 95 67 65 59 53 53 45 35 37 42 23 29 11 40 32 32 28 20 9 360 344 327 316 314 318 280 327 316 315 347 326 332 333 329 302 266 249
84 71 75 92 89 95 87 72 64 57 48 48 47 39 51 51 45 56 46 49 44 42 40 26 16 358 332 282 296 302 296 323 327 334 349 357 338 340 337 333 325 308 282
95 79 76 106 96 98 89 76 65 59 56 49 45 41 52 57 60 59 54 45 36 34 48 36 27 13 347 359 358 295 356 350 339 8 30 3 22 25 23 21 20 20 15
85 79 61 84 87 95 91 82 69 52 58 58 45 36 45 51 42 47 37 33 21 13 17 11 14 19 8 357 6 13 17 16 32 60 41 35 39 46 47 43 44 45 39
85 70 71 83 85 81 87 76 73 65 52 48 40 36 34 36 38 43 32 20 21 5 7 5 6 6 16 14 15 14 30 41 59 70 47 41 37 42 45 55 53 48 45
92 80 69 77 81 86 83 72 65 55 47 47 41 36 41 53 47 37 43 39 25 4 7 14 10 12 26 23 36 48 62 61 64 67 63 43 42 44 50 44 39 40 37
95 88 85 80 78 80 73 69 67 62 53 45 44 37 43 52 60 56 45 32 37 19 11 17 20 20 34 32 59 67 67 65 67 60 48 47 45 42 41 42 35 34 35
90 103 98 92 88 87 88 83 77 70 71 61 54 47 50 48 53 54 49 44 33 24 17 28 29 36 50 69 78 72 66 61 62 51 44 39 32 55 37 45 35 29 24
104 105 100 101 92 88 84 80 77 69 71 65 61 58 53 54 54 61 57 44 28 37 35 37 22 46 65 79 74 71 69 62 63 54 49 42 36 29 45 29 33 30 25
66 118 111 107 114 95 92 90 83 78 73 69 61 56 53 55 53 62 58 44 34 46 42 37 39 36 77 94 91 88 80 73 60 55 47 44 41 32 27 29 21 33 22
139 130 116 127 105 106 104 99 93 85 74 66 59 56 52 54 52 59 62 51 42 46 48 48 49 59 69 69 87 80 75 69 65 56 48 40 33 30 22 20 12 25 21
142 160 153 129 129 135 133 124 107 90 79 67 66 61 61 60 54 55 57 53 51 49 44 39 60 51 53 32 201 113 102 83 67 58 45 39 25 21 20 11 13 4 8
152 154 149 143 156 160 136 118 107 100 83 81 76 64 64 64 62 65 57 54 48 50 43 41 40 62 55 33 25 30 85 164 46 45 31 27 21 13 4 9 7 1 3
155 162 160 161 160 156 128 116 109 107 109 89 78 75 65 69 64 65 62 58 52 53 46 42 38 45 60 54 46 20 37 17 338 29 20 19 5 3 358 356 6 0 1
156 158 162 159 146 144 147 140 137 127 117 99 88 82 77 70 68 65 64 58 56 56 51 46 43 44 43 52 57 48 59 37 359 326 358 357 352 356 358 354 357 360 358
154 157 162 160 156 151 152 143 126 118 114 110 104 98 86 76 70 67 66 66 61 60 62 53 49 46 48 56 53 46 48 58 27 327 322 339 346 354 355 347 347 350 353
151 148 154 156 148 149 151 137 128 128 128 126 120 104 90 85 88 74 72 67 64 64 63 60 61 56 57 59 56 48 42 28 15 9 323 341 332 343 334 349 352 349 346